map of WMI home
WMI - Airport
Location
City:  Nowy Dwór Mazowiecki, Mazowieckie, Poland
Near (Alt.):Modlin, Warsaw
Name:Warsaw-Modlin Airport
ICAO:EPMO
IATA:WMI

Details
Type:Airport (Aerodrome, Airfield)
Use:Public/Civil
Latitude:52°27'04"N (52.451131)
Longitude:20°39'07"E (20.651894)
Elevation:341 ft (104 m)
Variation:5.87°E (WMM2015 magnetic declination)
0.13° annual change
Runways:1
Longest:8202 × 197 ft (2500 × 60 m), paved

Time
Time Zone:UTC+1 (DST+2)
Local Time:

Weather
METAR:EPMO 191400Z 22009KT 170V250 CAVOK 28/13 Q1017
TAF:EPMO 191130Z 1912/2012 20006KT CAVOK PROB40 1923/2006 2000 BR

Related Locations
Nearby:
Farthest:CHT: 11448 mi / 18425 km
Waitangi [Tuuta], CIT, NZ

Find:

   beyond  
but within

Other Information
Maps:
NOTAMs:
Links:
Sources:

  
  • flag of Poland
  • flag of Mazowieckie
  • flag of Nowy Dwór Mazowiecki
  

Sectional Chart

Flight Planning
at skyvector.com

Satellite Image

Google Maps Satellite view

 

Copyright © 2004-2018 Karl L. Swartz. All rights reserved.
The Great Circle Mapper name and logo are trademarks of the Great Circle Mapper.
All other trademarks mentioned herein belong to their respective owners.
Please see credits for attibutions and further copyright information.

  Follow gcmap on Facebook Follow gcmap on Twitter Follow gcmap on Google+ GCmap on LinkedIn

hCard Microformat

Geo Microformat